Weather History for Papa, Hungary

Change the Weather History Date:

Sunday, December 16, 2012

  Actual Average Record
Temperature  
Mean Temperature 40 °F -  
Max Temperature 46 °F - - ()
Min Temperature 35 °F - - ()
Degree Days  
Heating Degree Days 24    
Moisture  
Dew Point 39 °F    
Average Humidity 100    
Maximum Humidity 100    
Minimum Humidity 93    
Precipitation  
Precipitation 0.00 in - - ()
Sea Level Pressure  
Sea Level Pressure 29.93 in    
Wind  
Wind Speed 4 mph ()    
Max Wind Speed 9 mph    
Max Gust Speed -    
Visibility 1.5 miles    
Events Fog , Rain    
T = Trace of Precipitation, MM = Missing Value Source: Averaged Metar Reports

Daily Weather History Graph

Daily Weather History Graph

Search for Another Location

Airport:

Trip Planner

Search our weather history database for the weather conditions in past years. The results will help you decide how hot, cold, wet, or windy it might be!

Date:

Astronomy

Dec. 16, 2012 Rise Set
Actual Time 7:31 AM CET 4:00 PM CET
Civil Twilight 6:55 AM CET 4:35 PM CET
Nautical Twilight 6:16 AM CET 5:15 PM CET
Astronomical Twilight 5:39 AM CET 5:52 PM CET
Moon 9:42 AM CET (12/16) 8:06 PM CET (12/16)
Length of Visible Light 9h 40m
Length of Day
8h 28m
Waxing Crescent, 13% of the Moon is Illuminated
Dec 16
Waxing Crescent
Dec 20
First Quarter
Dec 28
Full
Jan 5
Last Quarter
Jan 11
New

Hourly Weather History & Observations

Time (CET) Temp. Windchill Dew Point Humidity Pressure Visibility Wind Dir Wind Speed Gust Speed Precip Events Conditions
12:15 AM 37.4 °F 33.9 °F 37.4 °F 100% 29.89 in 0.2 mi WNW 4.5 mph - N/A Fog Light Drizzle
12:45 AM 37.4 °F 33.9 °F 37.4 °F 100% 29.89 in 0.2 mi WNW 4.5 mph - N/A Fog Light Drizzle
1:15 AM 35.6 °F 31.8 °F 35.6 °F 100% 29.92 in 0.2 mi West 4.5 mph - N/A Fog Fog
1:45 AM 35.6 °F - 35.6 °F 100% 29.92 in 0.2 mi West 2.2 mph - N/A Fog Light Drizzle
2:15 AM 35.6 °F - 35.6 °F 100% 29.92 in 0.2 mi Calm Calm - N/A Fog Light Drizzle
2:45 AM 35.6 °F - 35.6 °F 100% 29.92 in 0.2 mi Calm Calm - N/A Fog Light Drizzle
3:15 AM 35.6 °F - 35.6 °F 100% 29.92 in 0.2 mi South 2.2 mph - N/A Fog Light Drizzle
3:45 AM 37.4 °F - 37.4 °F 100% 29.92 in 0.2 mi South 2.2 mph - N/A Fog Light Drizzle
4:15 AM 37.4 °F 33.9 °F 37.4 °F 100% 29.92 in 0.2 mi South 4.5 mph - N/A Fog Light Drizzle
4:45 AM 37.4 °F 33.9 °F 37.4 °F 100% 29.92 in 0.2 mi South 4.5 mph - N/A Fog Light Drizzle
5:15 AM 39.2 °F 36.0 °F 39.2 °F 100% 29.92 in 0.1 mi South 4.5 mph - N/A Fog Light Drizzle
5:45 AM - - - N/A% - 0.5 mi Variable 4.5 mph - N/A Fog Fog
6:15 AM 39.2 °F 33.1 °F 39.2 °F 100% 29.95 in 0.2 mi SSW 8.9 mph - N/A Fog Light Drizzle
6:45 AM 39.2 °F 33.1 °F 39.2 °F 100% 29.92 in 0.2 mi SSW 8.9 mph - N/A Fog Light Drizzle
7:15 AM 37.4 °F 32.2 °F 37.4 °F 100% 29.92 in 0.2 mi South 6.7 mph - N/A Fog Light Drizzle
7:45 AM 37.4 °F 32.2 °F 37.4 °F 100% 29.92 in 0.2 mi South 6.7 mph - N/A Fog Light Drizzle
8:15 AM 37.4 °F 32.2 °F 37.4 °F 100% 29.92 in 0.3 mi South 6.7 mph - N/A Fog Light Drizzle
8:45 AM - - - N/A% - 0.5 mi Variable 4.5 mph - N/A Fog Fog
9:15 AM 37.4 °F 33.9 °F 37.4 °F 100% 29.92 in 0.4 mi SSW 4.5 mph - N/A Fog Fog
9:45 AM 37.4 °F 33.9 °F 37.4 °F 100% 29.95 in 0.4 mi SW 4.5 mph - N/A Fog Fog
10:15 AM 39.2 °F 34.4 °F 39.2 °F 100% 29.95 in 0.4 mi SW 6.7 mph - N/A Fog Fog
10:45 AM 41.0 °F 36.5 °F 41.0 °F 100% 29.95 in 0.5 mi SSW 6.7 mph - N/A Fog Fog
11:15 AM 42.8 °F 37.6 °F 42.8 °F 100% 29.95 in 3.1 mi SSW 8.9 mph - N/A   Mostly Cloudy
11:17 AM - - - N/A% - 6.2 mi Variable 4.5 mph - N/A   Overcast
11:45 AM - - - N/A% - 6.2 mi Variable 4.5 mph - N/A   Overcast
12:15 PM 42.8 °F 37.6 °F 42.8 °F 100% 29.95 in 6.2 mi South 8.9 mph - N/A   Mostly Cloudy
12:45 PM 42.8 °F 37.6 °F 42.8 °F 100% 29.95 in 6.2 mi South 8.9 mph - N/A   Mostly Cloudy
1:15 PM 44.6 °F 40.8 °F 44.6 °F 100% 29.92 in 6.2 mi South 6.7 mph - N/A   Mostly Cloudy
1:45 PM 44.6 °F 40.8 °F 42.8 °F 93% 29.92 in 6.2 mi South 6.7 mph - N/A   Mostly Cloudy
2:15 PM 46.4 °F 43.0 °F 44.6 °F 93% 29.92 in 6.2 mi SE 6.7 mph - N/A   Mostly Cloudy
2:45 PM - - - N/A% - 6.2 mi Variable 4.5 mph - N/A   Overcast
3:15 PM 44.6 °F - 44.6 °F 100% 29.92 in 6.2 mi West 2.2 mph - N/A   Mostly Cloudy
3:45 PM 42.8 °F - 42.8 °F 100% 29.92 in 6.2 mi WNW 2.2 mph - N/A   Mostly Cloudy
4:00 PM 42.8 °F - 42.8 °F 100% 29.92 in 3.1 mi Calm Calm - N/A   Mostly Cloudy
4:15 PM 42.8 °F 40.2 °F 42.8 °F 100% 29.92 in 2.5 mi East 4.5 mph - N/A   Mostly Cloudy
4:45 PM 39.2 °F - 39.2 °F 100% 29.92 in 2.5 mi East 2.2 mph - N/A Fog Mostly Cloudy
5:08 PM 41.0 °F - 41.0 °F 100% 29.92 in 0.9 mi Calm Calm - N/A   Scattered Clouds
5:15 PM 41.0 °F - 41.0 °F 100% 29.92 in 0.5 mi Calm Calm - N/A Fog Fog
5:45 PM - - - N/A% - 0.9 mi Variable 4.5 mph - N/A Fog Fog
5:51 PM 37.4 °F 32.2 °F 37.4 °F 100% 29.92 in 0.2 mi WNW 6.7 mph - N/A Fog Fog
6:15 PM 39.2 °F - 39.2 °F 100% 29.92 in 0.2 mi NW 2.2 mph - N/A Fog Fog
6:27 PM 37.4 °F - 37.4 °F 100% 29.95 in 0.1 mi WNW 2.2 mph - N/A Fog Fog
6:45 PM 37.4 °F 33.9 °F 37.4 °F 100% 29.92 in 0.1 mi NW 4.5 mph - N/A Fog Fog
7:15 PM 37.4 °F - 37.4 °F 100% 29.95 in 0.1 mi Calm Calm - N/A Fog Fog
7:45 PM 37.4 °F - 37.4 °F 100% 29.92 in 0.1 mi Calm Calm - N/A Fog Fog
8:15 PM 37.4 °F - 37.4 °F 100% 29.95 in 0.1 mi Calm Calm - N/A Fog Fog
8:45 PM - - - N/A% - 0.1 mi Variable 4.5 mph - N/A Fog Fog
8:53 PM 37.4 °F - 37.4 °F 100% 29.95 in 0.1 mi SE 2.2 mph - N/A Fog , Rain Light Rain
9:15 PM 37.4 °F 33.9 °F 37.4 °F 100% 29.92 in 0.1 mi SE 4.5 mph - N/A Fog , Rain Light Rain
9:45 PM 37.4 °F 33.9 °F 37.4 °F 100% 29.92 in 0.1 mi SE 4.5 mph - N/A Fog , Rain Light Rain
9:51 PM 37.4 °F 32.2 °F 37.4 °F 100% 29.92 in 0.1 mi SSE 6.7 mph - N/A Fog Fog
10:15 PM 39.2 °F 34.4 °F 39.2 °F 100% 29.92 in 0.1 mi WNW 6.7 mph - N/A Fog Fog
10:45 PM 37.4 °F - 37.4 °F 100% 29.92 in 0.1 mi South 2.2 mph - N/A Fog Fog
11:15 PM 39.2 °F 36.0 °F 39.2 °F 100% 29.92 in 0.2 mi WSW 4.5 mph - N/A Fog Fog
11:45 PM - - - N/A% - 0.1 mi North - - N/A Fog Fog